sat.trackr.live / text

‹ back to catalog

ION SCV-007

NORAD 55060 · 2023-001BD

PAYLOAD ACTIVE UNKNOWN

§ Identity

Operator
Country
IT
Launch date
2023-01-03
Launch site
AFETR
Launch vehicle
Mass (kg)
RCS (m²)

External: N2YO · Heavens-Above · Gunter

§ Orbital elements

Epoch: 2026-05-25T02:31:19.276608Z

Period
97.46 min
Inclination
97.9017°
Eccentricity
0.0013469
Mean motion
14.77528398 rev/d
Perigee alt
627.7 km
Apogee alt
646.6 km
Semi-major
7,015.3 km
B*
5.6073e-5
RAAN
208.5767°
Arg perigee
54.8101°
Mean anomaly
305.4369°
Rev number
18,284

§ Raw data

ION SCV-0071 55060U 23001BD  26145.10508422  .00000350  00000+0  56073-4 0  99942 55060  97.9017 208.5767 0013469  54.8101 305.4369 14.77528398182845

JSON: /api/v1/satellites/55060 · /tle

For live sub-satellite position, see the globe view (requires WebGL).

§ Visibility from observer

Set your observer location to see the next 7 days of passes ≥ 10°. The values pass through the URL so the page stays shareable.

No JS? Fill the form by hand. The geolocation button needs JavaScript.

§ Radio — SatNOGS DB

ModeDescriptionDownlinkUplink
FSK AX.100 Mode 5 Mode U - FSK1k2 AX.100 401.415 MHz
BPSK S-Band Transmitter 2.262 GHz

2 transmitters · refreshed weekly from db.satnogs.org